"Sample Date","Sample Time","Sensor Name","Sample Value","Units","Flow Rate","Sample Interval","Sample Volume","Laser Status","Number Channels","Micron Size 0","Counts/Channel 0","Micron Size 1","Counts/Channel 1","Micron Size 2","Counts/Channel 2","Micron Size 3","Counts/Channel 3","Micron Size 4","Counts/Channel 4","Micron Size 5","Counts/Channel 5","Micron Size 6","Counts/Channel 6","Micron Size 7","Counts/Channel 7","Micron Size 8","Counts/Channel 8","Micron Size 9","Counts/Channel 9","Micron Size 10","Counts/Channel 10","Micron Size 11","Counts/Channel 11","Micron Size 12","Counts/Channel 12","Micron Size 13","Counts/Channel 13","Micron Size 14","Counts/Channel 14","Micron Size 15","Counts/Channel 15","Micron Size 16","Counts/Channel 16","Micron Size 17","Counts/Channel 17","Micron Size 18","Counts/Channel 18","Micron Size 19","Counts/Channel 19","Micron Size 20","Counts/Channel 20","Micron Size 21","Counts/Channel 21","Micron Size 22","Counts/Channel 22","Micron Size 23","Counts/Channel 23","Micron Size 24","Counts/Channel 24","Micron Size 25","Counts/Channel 25","Micron Size 26","Counts/Channel 26","Micron Size 27","Counts/Channel 27","Micron Size 28","Counts/Channel 28","Micron Size 29","Counts/Channel 29","Micron Size 30","Counts/Channel 30","Micron Size 31","Counts/Channel 31"
"07/04/06","15:00:01","AMMA06",48027.000,"cc",28285.619,6.00,2828.562,1,6,0.100,29767.000,0.200,15893.000,0.300,1619.000,0.500,464.000,1.000,284.000,5.000,0
"07/04/06","15:00:07","AMMA06",47628.000,"cc",28301.537,6.00,2830.154,1,6,0.100,29578.000,0.200,15691.000,0.300,1629.000,0.500,456.000,1.000,274.000,5.000,0
"07/04/06","15:00:13","AMMA06",47705.000,"cc",28361.621,6.00,2836.162,1,6,0.100,29493.000,0.200,15886.000,0.300,1637.000,0.500,440.000,1.000,248.000,5.000,1.000
"07/04/06","15:00:19","AMMA06",47980.000,"cc",28314.190,6.00,2831.419,1,6,0.100,30010.000,0.200,15567.000,0.300,1646.000,0.500,478.000,1.000,278.000,5.000,1.000
"07/04/06","15:00:25","AMMA06",47697.000,"cc",28329.555,6.00,2832.956,1,6,0.100,29625.000,0.200,15707.000,0.300,1619.000,0.500,438.000,1.000,308.000,5.000,0
"07/04/06","15:00:31","AMMA06",47904.000,"cc",28298.522,6.00,2829.852,1,6,0.100,29634.000,0.200,15889.000,0.300,1650.000,0.500,460.000,1.000,271.000,5.000,0
"07/04/06","15:00:37","AMMA06",47767.000,"cc",28308.354,6.00,2830.835,1,6,0.100,29547.000,0.200,15836.000,0.300,1635.000,0.500,456.000,1.000,293.000,5.000,0
"07/04/06","15:00:43","AMMA06",47517.000,"cc",28316.729,6.00,2831.673,1,6,0.100,29405.000,0.200,15672.000,0.300,1704.000,0.500,456.000,1.000,280.000,5.000,0
"07/04/06","15:00:49","AMMA06",47435.000,"cc",28355.938,6.00,2835.594,1,6,0.100,29366.000,0.200,15671.000,0.300,1618.000,0.500,516.000,1.000,264.000,5.000,0
"07/04/06","15:00:55","AMMA06",47857.000,"cc",28339.918,6.00,2833.992,1,6,0.100,29817.000,0.200,15686.000,0.300,1601.000,0.500,453.000,1.000,300.000,5.000,0
"07/04/06","15:01:01","AMMA06",47691.000,"cc",28347.400,6.00,2834.740,1,6,0.100,29585.000,0.200,15751.000,0.300,1612.000,0.500,441.000,1.000,302.000,5.000,0
"07/04/06","15:01:07","AMMA06",47490.000,"cc",28261.563,6.00,2826.157,1,6,0.100,29433.000,0.200,15677.000,0.300,1632.000,0.500,476.000,1.000,272.000,5.000,0
"07/04/06","15:01:13","AMMA06",47773.000,"cc",28308.438,6.00,2830.844,1,6,0.100,29651.000,0.200,15753.000,0.300,1600.000,0.500,463.000,1.000,306.000,5.000,0
"07/04/06","15:01:19","AMMA06",47572.000,"cc",28285.008,6.00,2828.501,1,6,0.100,29600.000,0.200,15608.000,0.300,1624.000,0.500,442.000,1.000,298.000,5.000,0
"07/04/06","15:01:25","AMMA06",47612.000,"cc",28330.732,6.00,2833.074,1,6,0.100,29480.000,0.200,15808.000,0.300,1550.000,0.500,475.000,1.000,298.000,5.000,1.000
"07/04/06","15:01:31","AMMA06",47645.000,"cc",28349.164,6.00,2834.917,1,6,0.100,29318.000,0.200,15869.000,0.300,1645.000,0.500,508.000,1.000,305.000,5.000,0
"07/04/06","15:01:37","AMMA06",48153.000,"cc",28308.770,6.00,2830.877,1,6,0.100,29675.000,0.200,16018.000,0.300,1709.000,0.500,480.000,1.000,270.000,5.000,1.000
"07/04/06","15:01:43","AMMA06",48274.000,"cc",28309.266,6.00,2830.927,1,6,0.100,29875.000,0.200,16017.000,0.300,1643.000,0.500,424.000,1.000,315.000,5.000,0
"07/04/06","15:01:49","AMMA06",48259.000,"cc",28338.330,6.00,2833.833,1,6,0.100,29693.000,0.200,16100.000,0.300,1721.000,0.500,476.000,1.000,269.000,5.000,0
"07/04/06","15:01:55","AMMA06",47530.000,"cc",28277.203,6.00,2827.721,1,6,0.100,29276.000,0.200,15929.000,0.300,1603.000,0.500,450.000,1.000,272.000,5.000,0
"07/04/06","15:02:01","AMMA06",48133.000,"cc",28309.762,6.00,2830.976,1,6,0.100,29579.000,0.200,16089.000,0.300,1672.000,0.500,472.000,1.000,320.000,5.000,1.000
"07/04/06","15:02:07","AMMA06",47867.000,"cc",28299.148,6.00,2829.915,1,6,0.100,29378.000,0.200,16079.000,0.300,1648.000,0.500,489.000,1.000,273.000,5.000,0
"07/04/06","15:02:13","AMMA06",47786.000,"cc",28369.469,6.00,2836.947,1,6,0.100,29358.000,0.200,16061.000,0.300,1619.000,0.500,450.000,1.000,298.000,5.000,0
"07/04/06","15:02:19","AMMA06",47973.000,"cc",28299.098,6.00,2829.910,1,6,0.100,29619.000,0.200,15943.000,0.300,1648.000,0.500,465.000,1.000,298.000,5.000,0
"07/04/06","15:02:25","AMMA06",48012.000,"cc",28319.004,6.00,2831.901,1,6,0.100,29451.000,0.200,16223.000,0.300,1601.000,0.500,465.000,1.000,272.000,5.000,0
"07/04/06","15:02:31","AMMA06",47782.000,"cc",28315.039,6.00,2831.504,1,6,0.100,29346.000,0.200,15995.000,0.300,1708.000,0.500,471.000,1.000,262.000,5.000,0
"07/04/06","15:02:37","AMMA06",47792.000,"cc",28323.258,6.00,2832.326,1,6,0.100,29402.000,0.200,16123.000,0.300,1551.000,0.500,437.000,1.000,279.000,5.000,0
"07/04/06","15:02:43","AMMA06",47924.000,"cc",28313.633,6.00,2831.364,1,6,0.100,29676.000,0.200,15868.000,0.300,1641.000,0.500,447.000,1.000,292.000,5.000,0
"07/04/06","15:02:49","AMMA06",47977.000,"cc",28288.565,6.00,2828.857,1,6,0.100,29420.000,0.200,16142.000,0.300,1706.000,0.500,446.000,1.000,263.000,5.000,0
"07/04/06","15:02:55","AMMA06",48129.000,"cc",28345.801,6.00,2834.580,1,6,0.100,29512.000,0.200,16146.000,0.300,1690.000,0.500,470.000,1.000,311.000,5.000,0
"07/04/06","15:03:01","AMMA06",47774.000,"cc",28295.465,6.00,2829.547,1,6,0.100,29556.000,0.200,15889.000,0.300,1580.000,0.500,474.000,1.000,275.000,5.000,0
"07/04/06","15:03:07","AMMA06",48220.000,"cc",28326.160,6.00,2832.616,1,6,0.100,29689.000,0.200,16106.000,0.300,1644.000,0.500,485.000,1.000,295.000,5.000,1.000
"07/04/06","15:03:13","AMMA06",47942.000,"cc",28287.768,6.00,2828.777,1,6,0.100,29548.000,0.200,15959.000,0.300,1670.000,0.500,445.000,1.000,320.000,5.000,0
"07/04/06","15:03:19","AMMA06",48057.000,"cc",28356.260,6.00,2835.626,1,6,0.100,29557.000,0.200,16124.000,0.300,1637.000,0.500,443.000,1.000,296.000,5.000,0
"07/04/06","15:03:25","AMMA06",48108.000,"cc",28305.066,6.00,2830.507,1,6,0.100,29755.000,0.200,16017.000,0.300,1612.000,0.500,471.000,1.000,253.000,5.000,0
"07/04/06","15:03:31","AMMA06",48037.000,"cc",28313.037,6.00,2831.304,1,6,0.100,29614.000,0.200,16060.000,0.300,1607.000,0.500,483.000,1.000,273.000,5.000,0
"07/04/06","15:03:37","AMMA06",47754.000,"cc",28345.875,6.00,2834.588,1,6,0.100,29268.000,0.200,16096.000,0.300,1687.000,0.500,445.000,1.000,258.000,5.000,0
"07/04/06","15:03:43","AMMA06",47796.000,"cc",28291.684,6.00,2829.169,1,6,0.100,29184.000,0.200,16189.000,0.300,1681.000,0.500,453.000,1.000,288.000,5.000,1.000
"07/04/06","15:03:49","AMMA06",47926.000,"cc",28297.074,6.00,2829.708,1,6,0.100,29386.000,0.200,16000.000,0.300,1745.000,0.500,482.000,1.000,313.000,5.000,0
"07/04/06","15:03:55","AMMA06",47871.000,"cc",28316.016,6.00,2831.602,1,6,0.100,29482.000,0.200,15966.000,0.300,1642.000,0.500,445.000,1.000,335.000,5.000,1.000
"07/04/06","15:04:01","AMMA06",48001.000,"cc",28312.959,6.00,2831.296,1,6,0.100,29630.000,0.200,15977.000,0.300,1628.000,0.500,486.000,1.000,280.000,5.000,0
"07/04/06","15:04:07","AMMA06",48246.000,"cc",28331.508,6.00,2833.151,1,6,0.100,29335.000,0.200,16433.000,0.300,1726.000,0.500,476.000,1.000,276.000,5.000,0
"07/04/06","15:04:13","AMMA06",47887.000,"cc",28335.955,6.00,2833.596,1,6,0.100,29162.000,0.200,16293.000,0.300,1661.000,0.500,503.000,1.000,268.000,5.000,0
"07/04/06","15:04:19","AMMA06",48107.000,"cc",28345.055,6.00,2834.506,1,6,0.100,29215.000,0.200,16393.000,0.300,1735.000,0.500,462.000,1.000,302.000,5.000,0
"07/04/06","15:04:25","AMMA06",47739.000,"cc",28341.459,6.00,2834.146,1,6,0.100,29252.000,0.200,16131.000,0.300,1608.000,0.500,481.000,1.000,267.000,5.000,0
"07/04/06","15:04:31","AMMA06",47552.000,"cc",28299.471,6.00,2829.947,1,6,0.100,28880.000,0.200,16292.000,0.300,1618.000,0.500,475.000,1.000,287.000,5.000,0
"07/04/06","15:04:37","AMMA06",48317.000,"cc",28279.541,6.00,2827.954,1,6,0.100,29400.000,0.200,16508.000,0.300,1670.000,0.500,435.000,1.000,303.000,5.000,1.000
"07/04/06","15:04:43","AMMA06",47785.000,"cc",28320.219,6.00,2832.022,1,6,0.100,29298.000,0.200,16101.000,0.300,1645.000,0.500,461.000,1.000,280.000,5.000,0
"07/04/06","15:04:49","AMMA06",47900.000,"cc",28292.797,6.00,2829.280,1,6,0.100,29174.000,0.200,16242.000,0.300,1704.000,0.500,474.000,1.000,306.000,5.000,0
"07/04/06","15:04:55","AMMA06",48042.000,"cc",28278.799,6.00,2827.880,1,6,0.100,28943.000,0.200,16596.000,0.300,1730.000,0.500,479.000,1.000,294.000,5.000,0
"07/04/06","15:05:01","AMMA06",47868.000,"cc",28343.184,6.00,2834.319,1,6,0.100,29188.000,0.200,16270.000,0.300,1618.000,0.500,447.000,1.000,345.000,5.000,0
"07/04/06","15:05:07","AMMA06",48242.000,"cc",28325.906,6.00,2832.591,1,6,0.100,29233.000,0.200,16515.000,0.300,1669.000,0.500,529.000,1.000,296.000,5.000,0
"07/04/06","15:05:13","AMMA06",47838.000,"cc",28338.738,6.00,2833.874,1,6,0.100,29085.000,0.200,16197.000,0.300,1741.000,0.500,472.000,1.000,342.000,5.000,1.000
"07/04/06","15:05:19","AMMA06",48003.000,"cc",28350.016,6.00,2835.002,1,6,0.100,29131.000,0.200,16439.000,0.300,1722.000,0.500,446.000,1.000,265.000,5.000,0
"07/04/06","15:05:25","AMMA06",48106.000,"cc",28355.457,6.00,2835.546,1,6,0.100,29142.000,0.200,16442.000,0.300,1748.000,0.500,487.000,1.000,287.000,5.000,0
"07/04/06","15:05:31","AMMA06",47688.000,"cc",28269.688,6.00,2826.969,1,6,0.100,28981.000,0.200,16262.000,0.300,1746.000,0.500,416.000,1.000,283.000,5.000,0
"07/04/06","15:05:37","AMMA06",47544.000,"cc",28300.193,6.00,2830.020,1,6,0.100,28739.000,0.200,16356.000,0.300,1709.000,0.500,457.000,1.000,283.000,5.000,0
"07/04/06","15:05:43","AMMA06",48393.000,"cc",28287.537,6.00,2828.754,1,6,0.100,29409.000,0.200,16534.000,0.300,1692.000,0.500,457.000,1.000,300.000,5.000,1.000
"07/04/06","15:05:49","AMMA06",48152.000,"cc",28378.242,6.00,2837.825,1,6,0.100,29148.000,0.200,16546.000,0.300,1725.000,0.500,450.000,1.000,283.000,5.000,0
"07/04/06","15:05:55","AMMA06",47459.000,"cc",28319.098,6.00,2831.910,1,6,0.100,28745.000,0.200,16277.000,0.300,1693.000,0.500,450.000,1.000,293.000,5.000,1.000
"07/04/06","15:06:01","AMMA06",47960.000,"cc",28292.260,6.00,2829.226,1,6,0.100,29222.000,0.200,16267.000,0.300,1714.000,0.500,456.000,1.000,301.000,5.000,0
"07/04/06","15:06:07","AMMA06",48231.000,"cc",28327.031,6.00,2832.703,1,6,0.100,29425.000,0.200,16341.000,0.300,1717.000,0.500,452.000,1.000,296.000,5.000,0
"07/04/06","15:06:13","AMMA06",47901.000,"cc",28397.918,6.00,2839.792,1,6,0.100,29347.000,0.200,16146.000,0.300,1689.000,0.500,425.000,1.000,294.000,5.000,0
"07/04/06","15:06:19","AMMA06",47774.000,"cc",28289.647,6.00,2828.965,1,6,0.100,29000.000,0.200,16351.000,0.300,1682.000,0.500,442.000,1.000,299.000,5.000,0
"07/04/06","15:06:25","AMMA06",47651.000,"cc",28292.096,6.00,2829.210,1,6,0.100,29116.000,0.200,16108.000,0.300,1717.000,0.500,435.000,1.000,275.000,5.000,0
"07/04/06","15:06:31","AMMA06",47733.000,"cc",28320.902,6.00,2832.090,1,6,0.100,28819.000,0.200,16469.000,0.300,1686.000,0.500,467.000,1.000,292.000,5.000,0
"07/04/06","15:06:37","AMMA06",47795.000,"cc",28273.053,6.00,2827.305,1,6,0.100,29138.000,0.200,16196.000,0.300,1680.000,0.500,487.000,1.000,294.000,5.000,0
"07/04/06","15:06:43","AMMA06",47923.000,"cc",28355.557,6.00,2835.556,1,6,0.100,29016.000,0.200,16478.000,0.300,1685.000,0.500,445.000,1.000,298.000,5.000,1.000
"07/04/06","15:06:49","AMMA06",48170.000,"cc",28332.504,6.00,2833.251,1,6,0.100,29221.000,0.200,16392.000,0.300,1776.000,0.500,494.000,1.000,287.000,5.000,0
"07/04/06","15:06:55","AMMA06",47809.000,"cc",28336.732,6.00,2833.673,1,6,0.100,29235.000,0.200,16149.000,0.300,1667.000,0.500,478.000,1.000,279.000,5.000,1.000
"07/04/06","15:07:01","AMMA06",47821.000,"cc",28296.287,6.00,2829.629,1,6,0.100,29030.000,0.200,16331.000,0.300,1691.000,0.500,454.000,1.000,315.000,5.000,0
"07/04/06","15:07:07","AMMA06",47871.000,"cc",28319.272,6.00,2831.927,1,6,0.100,29194.000,0.200,16202.000,0.300,1715.000,0.500,447.000,1.000,312.000,5.000,1.000
"07/04/06","15:07:13","AMMA06",47771.000,"cc",28339.527,6.00,2833.953,1,6,0.100,29065.000,0.200,16238.000,0.300,1727.000,0.500,469.000,1.000,272.000,5.000,0
"07/04/06","15:07:19","AMMA06",48274.000,"cc",28310.020,6.00,2831.002,1,6,0.100,29336.000,0.200,16421.000,0.300,1782.000,0.500,421.000,1.000,314.000,5.000,0
"07/04/06","15:07:25","AMMA06",47590.000,"cc",28319.180,6.00,2831.918,1,6,0.100,28745.000,0.200,16399.000,0.300,1698.000,0.500,456.000,1.000,292.000,5.000,0
"07/04/06","15:07:31","AMMA06",48077.000,"cc",28291.648,6.00,2829.165,1,6,0.100,29295.000,0.200,16344.000,0.300,1706.000,0.500,422.000,1.000,310.000,5.000,0
"07/04/06","15:07:37","AMMA06",47689.000,"cc",28359.598,6.00,2835.960,1,6,0.100,28895.000,0.200,16340.000,0.300,1696.000,0.500,452.000,1.000,306.000,5.000,0
"07/04/06","15:07:43","AMMA06",47462.000,"cc",28285.908,6.00,2828.591,1,6,0.100,28717.000,0.200,16334.000,0.300,1678.000,0.500,450.000,1.000,282.000,5.000,1.000
"07/04/06","15:07:49","AMMA06",48250.000,"cc",28303.311,6.00,2830.331,1,6,0.100,29006.000,0.200,16662.000,0.300,1781.000,0.500,473.000,1.000,328.000,5.000,0
"07/04/06","15:07:55","AMMA06",47801.000,"cc",28347.787,6.00,2834.779,1,6,0.100,28928.000,0.200,16391.000,0.300,1751.000,0.500,436.000,1.000,295.000,5.000,0
"07/04/06","15:08:01","AMMA06",47333.000,"cc",28341.053,6.00,2834.106,1,6,0.100,28638.000,0.200,16300.000,0.300,1691.000,0.500,424.000,1.000,280.000,5.000,0
"07/04/06","15:08:07","AMMA06",47608.000,"cc",28256.424,6.00,2825.643,1,6,0.100,28683.000,0.200,16497.000,0.300,1739.000,0.500,419.000,1.000,270.000,5.000,0
"07/04/06","15:08:13","AMMA06",48055.000,"cc",28322.188,6.00,2832.219,1,6,0.100,29135.000,0.200,16391.000,0.300,1801.000,0.500,424.000,1.000,303.000,5.000,1.000
"07/04/06","15:08:19","AMMA06",47636.000,"cc",28328.662,6.00,2832.867,1,6,0.100,28759.000,0.200,16360.000,0.300,1758.000,0.500,466.000,1.000,291.000,5.000,2.000
"07/04/06","15:08:25","AMMA06",47635.000,"cc",28329.117,6.00,2832.912,1,6,0.100,28797.000,0.200,16429.000,0.300,1658.000,0.500,428.000,1.000,323.000,5.000,0
"07/04/06","15:08:31","AMMA06",47953.000,"cc",28318.279,6.00,2831.828,1,6,0.100,28905.000,0.200,16510.000,0.300,1757.000,0.500,480.000,1.000,301.000,5.000,0
"07/04/06","15:08:37","AMMA06",47790.000,"cc",28303.203,6.00,2830.321,1,6,0.100,29054.000,0.200,16320.000,0.300,1679.000,0.500,463.000,1.000,274.000,5.000,0
"07/04/06","15:08:43","AMMA06",48088.000,"cc",28357.494,6.00,2835.750,1,6,0.100,29390.000,0.200,16311.000,0.300,1661.000,0.500,459.000,1.000,267.000,5.000,0
"07/04/06","15:08:49","AMMA06",47474.000,"cc",28334.057,6.00,2833.406,1,6,0.100,28729.000,0.200,16278.000,0.300,1706.000,0.500,455.000,1.000,306.000,5.000,0
"07/04/06","15:08:55","AMMA06",47474.000,"cc",28286.166,6.00,2828.617,1,6,0.100,29005.000,0.200,16022.000,0.300,1708.000,0.500,471.000,1.000,268.000,5.000,0
"07/04/06","15:09:01","AMMA06",47496.000,"cc",28301.561,6.00,2830.156,1,6,0.100,29088.000,0.200,15977.000,0.300,1645.000,0.500,491.000,1.000,295.000,5.000,0
"07/04/06","15:09:07","AMMA06",47400.000,"cc",28302.174,6.00,2830.218,1,6,0.100,29027.000,0.200,15915.000,0.300,1667.000,0.500,463.000,1.000,328.000,5.000,0
"07/04/06","15:09:13","AMMA06",47782.000,"cc",28321.992,6.00,2832.200,1,6,0.100,29401.000,0.200,15935.000,0.300,1698.000,0.500,444.000,1.000,304.000,5.000,0
"07/04/06","15:09:19","AMMA06",47420.000,"cc",28295.231,6.00,2829.523,1,6,0.100,29065.000,0.200,15893.000,0.300,1709.000,0.500,441.000,1.000,312.000,5.000,0
"07/04/06","15:09:25","AMMA06",48045.000,"cc",28286.432,6.00,2828.643,1,6,0.100,29487.000,0.200,16172.000,0.300,1633.000,0.500,434.000,1.000,319.000,5.000,0
"07/04/06","15:09:31","AMMA06",47473.000,"cc",28329.813,6.00,2832.981,1,6,0.100,29203.000,0.200,15882.000,0.300,1657.000,0.500,458.000,1.000,273.000,5.000,0
"07/04/06","15:09:37","AMMA06",47424.000,"cc",28312.006,6.00,2831.201,1,6,0.100,29266.000,0.200,15729.000,0.300,1697.000,0.500,434.000,1.000,298.000,5.000,0
"07/04/06","15:09:43","AMMA06",47504.000,"cc",28325.932,6.00,2832.593,1,6,0.100,29322.000,0.200,15742.000,0.300,1704.000,0.500,442.000,1.000,294.000,5.000,0
"07/04/06","15:09:49","AMMA06",47484.000,"cc",28278.250,6.00,2827.825,1,6,0.100,29354.000,0.200,15773.000,0.300,1634.000,0.500,420.000,1.000,303.000,5.000,0
"07/04/06","15:09:55","AMMA06",47849.000,"cc",28346.375,6.00,2834.638,1,6,0.100,29543.000,0.200,15819.000,0.300,1655.000,0.500,527.000,1.000,305.000,5.000,0
"07/04/06","15:10:01","AMMA06",47619.000,"cc",28298.709,6.00,2829.871,1,6,0.100,29246.000,0.200,16035.000,0.300,1581.000,0.500,462.000,1.000,294.000,5.000,1.000
"07/04/06","15:10:07","AMMA06",47739.000,"cc",28353.309,6.00,2835.331,1,6,0.100,29379.000,0.200,15906.000,0.300,1703.000,0.500,464.000,1.000,287.000,5.000,0
"07/04/06","15:10:13","AMMA06",47529.000,"cc",28315.709,6.00,2831.571,1,6,0.100,29313.000,0.200,15831.000,0.300,1643.000,0.500,449.000,1.000,293.000,5.000,0
"07/04/06","15:10:19","AMMA06",47201.000,"cc",28329.193,6.00,2832.919,1,6,0.100,29162.000,0.200,15710.000,0.300,1624.000,0.500,443.000,1.000,262.000,5.000,0
"07/04/06","15:10:25","AMMA06",47060.000,"cc",28361.690,6.00,2836.169,1,6,0.100,29002.000,0.200,15661.000,0.300,1610.000,0.500,499.000,1.000,288.000,5.000,0
"07/04/06","15:10:31","AMMA06",47397.000,"cc",28260.873,6.00,2826.087,1,6,0.100,29210.000,0.200,15874.000,0.300,1580.000,0.500,445.000,1.000,287.000,5.000,1.000
"07/04/06","15:10:37","AMMA06",47174.000,"cc",28281.969,6.00,2828.197,1,6,0.100,29166.000,0.200,15638.000,0.300,1594.000,0.500,465.000,1.000,311.000,5.000,0
"07/04/06","15:10:43","AMMA06",47561.000,"cc",28317.838,6.00,2831.784,1,6,0.100,29013.000,0.200,16130.000,0.300,1635.000,0.500,463.000,1.000,320.000,5.000,0
"07/04/06","15:10:49","AMMA06",47663.000,"cc",28355.967,6.00,2835.597,1,6,0.100,29352.000,0.200,15900.000,0.300,1668.000,0.500,461.000,1.000,281.000,5.000,1.000
"07/04/06","15:10:55","AMMA06",47454.000,"cc",28294.481,6.00,2829.448,1,6,0.100,29317.000,0.200,15805.000,0.300,1596.000,0.500,453.000,1.000,283.000,5.000,0
"07/04/06","15:11:01","AMMA06",47381.000,"cc",28400.486,6.00,2840.049,1,6,0.100,29016.000,0.200,15936.000,0.300,1659.000,0.500,467.000,1.000,303.000,5.000,0
"07/04/06","15:11:07","AMMA06",47522.000,"cc",28274.551,6.00,2827.455,1,6,0.100,29171.000,0.200,15933.000,0.300,1616.000,0.500,499.000,1.000,303.000,5.000,0
"07/04/06","15:11:13","AMMA06",47468.000,"cc",28290.336,6.00,2829.034,1,6,0.100,29113.000,0.200,15988.000,0.300,1612.000,0.500,454.000,1.000,301.000,5.000,0
"07/04/06","15:11:19","AMMA06",47301.000,"cc",28331.522,6.00,2833.152,1,6,0.100,28895.000,0.200,16029.000,0.300,1652.000,0.500,427.000,1.000,298.000,5.000,0
"07/04/06","15:11:25","AMMA06",47707.000,"cc",28300.797,6.00,2830.080,1,6,0.100,29251.000,0.200,16014.000,0.300,1695.000,0.500,437.000,1.000,310.000,5.000,0
"07/04/06","15:11:31","AMMA06",47671.000,"cc",28287.186,6.00,2828.719,1,6,0.100,29156.000,0.200,16123.000,0.300,1649.000,0.500,453.000,1.000,290.000,5.000,0
"07/04/06","15:11:37","AMMA06",47556.000,"cc",28316.920,6.00,2831.692,1,6,0.100,28969.000,0.200,16172.000,0.300,1659.000,0.500,466.000,1.000,290.000,5.000,0
"07/04/06","15:11:43","AMMA06",47594.000,"cc",28347.057,6.00,2834.706,1,6,0.100,28889.000,0.200,16310.000,0.300,1700.000,0.500,423.000,1.000,272.000,5.000,0
"07/04/06","15:11:49","AMMA06",47577.000,"cc",28353.334,6.00,2835.334,1,6,0.100,28916.000,0.200,16251.000,0.300,1647.000,0.500,457.000,1.000,306.000,5.000,0
"07/04/06","15:11:55","AMMA06",47272.000,"cc",28303.930,6.00,2830.393,1,6,0.100,28553.000,0.200,16182.000,0.300,1759.000,0.500,497.000,1.000,281.000,5.000,0
"07/04/06","15:12:01","AMMA06",47467.000,"cc",28305.281,6.00,2830.528,1,6,0.100,28767.000,0.200,16249.000,0.300,1703.000,0.500,450.000,1.000,297.000,5.000,1.000
"07/04/06","15:12:07","AMMA06",47428.000,"cc",28314.287,6.00,2831.429,1,6,0.100,28723.000,0.200,16173.000,0.300,1765.000,0.500,489.000,1.000,278.000,5.000,0
"07/04/06","15:12:13","AMMA06",47326.000,"cc",28273.129,6.00,2827.313,1,6,0.100,28501.000,0.200,16325.000,0.300,1667.000,0.500,489.000,1.000,344.000,5.000,0
"07/04/06","15:12:19","AMMA06",47852.000,"cc",28339.799,6.00,2833.980,1,6,0.100,28746.000,0.200,16628.000,0.300,1718.000,0.500,476.000,1.000,284.000,5.000,0
"07/04/06","15:12:25","AMMA06",47687.000,"cc",28310.658,6.00,2831.066,1,6,0.100,28556.000,0.200,16620.000,0.300,1780.000,0.500,455.000,1.000,275.000,5.000,1.000
"07/04/06","15:12:31","AMMA06",47407.000,"cc",28306.002,6.00,2830.600,1,6,0.100,28335.000,0.200,16605.000,0.300,1715.000,0.500,463.000,1.000,289.000,5.000,0
"07/04/06","15:12:37","AMMA06",47603.000,"cc",28392.797,6.00,2839.280,1,6,0.100,28547.000,0.200,16572.000,0.300,1735.000,0.500,460.000,1.000,289.000,5.000,0
"07/04/06","15:12:43","AMMA06",47503.000,"cc",28318.065,6.00,2831.807,1,6,0.100,28413.000,0.200,16507.000,0.300,1794.000,0.500,480.000,1.000,309.000,5.000,0
"07/04/06","15:12:49","AMMA06",47642.000,"cc",28268.236,6.00,2826.824,1,6,0.100,28483.000,0.200,16708.000,0.300,1691.000,0.500,477.000,1.000,283.000,5.000,0
"07/04/06","15:12:55","AMMA06",47625.000,"cc",28309.721,6.00,2830.972,1,6,0.100,28532.000,0.200,16510.000,0.300,1802.000,0.500,458.000,1.000,323.000,5.000,0
"07/04/06","15:13:01","AMMA06",47699.000,"cc",28287.918,6.00,2828.792,1,6,0.100,28612.000,0.200,16602.000,0.300,1714.000,0.500,446.000,1.000,325.000,5.000,0
"07/04/06","15:13:07","AMMA06",47321.000,"cc",28332.311,6.00,2833.231,1,6,0.100,28492.000,0.200,16411.000,0.300,1709.000,0.500,444.000,1.000,265.000,5.000,0
"07/04/06","15:13:13","AMMA06",47304.000,"cc",28315.625,6.00,2831.563,1,6,0.100,28160.000,0.200,16663.000,0.300,1753.000,0.500,419.000,1.000,308.000,5.000,1.000
"07/04/06","15:13:19","AMMA06",47380.000,"cc",28321.502,6.00,2832.150,1,6,0.100,28360.000,0.200,16514.000,0.300,1715.000,0.500,479.000,1.000,312.000,5.000,0
"07/04/06","15:13:25","AMMA06",47457.000,"cc",28283.356,6.00,2828.336,1,6,0.100,28307.000,0.200,16647.000,0.300,1744.000,0.500,462.000,1.000,297.000,5.000,0
"07/04/06","15:13:31","AMMA06",47301.000,"cc",28324.402,6.00,2832.440,1,6,0.100,28159.000,0.200,16559.000,0.300,1809.000,0.500,476.000,1.000,298.000,5.000,0
"07/04/06","15:13:37","AMMA06",47627.000,"cc",28325.408,6.00,2832.541,1,6,0.100,28409.000,0.200,16725.000,0.300,1773.000,0.500,405.000,1.000,315.000,5.000,0
"07/04/06","15:13:43","AMMA06",47623.000,"cc",28279.697,6.00,2827.970,1,6,0.100,28324.000,0.200,16882.000,0.300,1670.000,0.500,471.000,1.000,276.000,5.000,0
"07/04/06","15:13:49","AMMA06",47532.000,"cc",28332.361,6.00,2833.236,1,6,0.100,28276.000,0.200,16795.000,0.300,1717.000,0.500,411.000,1.000,333.000,5.000,0
"07/04/06","15:13:55","AMMA06",47744.000,"cc",28358.305,6.00,2835.831,1,6,0.100,28588.000,0.200,16673.000,0.300,1741.000,0.500,451.000,1.000,290.000,5.000,1.000
"07/04/06","15:14:01","AMMA06",47386.000,"cc",28346.541,6.00,2834.654,1,6,0.100,28114.000,0.200,16828.000,0.300,1706.000,0.500,449.000,1.000,289.000,5.000,0
"07/04/06","15:14:07","AMMA06",47516.000,"cc",28319.477,6.00,2831.948,1,6,0.100,28260.000,0.200,16746.000,0.300,1754.000,0.500,449.000,1.000,306.000,5.000,1.000